Tracking 29969 objects as of 6-Dec-2024
HD Live streaming from Space Station
objects crossing your sky now

STARLINK-30279

Track STARLINK-30279 now!
10-day predictions
STARLINK-30279 is classified as:


NORAD ID: 57885
Int'l Code: 2023-144X
Perigee: 565.4 km
Apogee: 567.0 km
Inclination: 43.0 °
Period: 95.8 minutes
Semi major axis: 6937 km
RCS: Unknown
Launch date: September 16, 2023
Source: United States (US)
Launch site: AIR FORCE EASTERN TEST RANGE (AFETR)
Your satellite tracking list
Your tracking list is empty




NASA's NSSDC Master Catalog

Two Line Element Set (TLE):
1 57885U 23144X   24341.05884681  .00000786  00000-0  73212-4 0  9991
2 57885  43.0014 259.2924 0001123 262.7245  97.3470 15.02534749 68560
Source of the keplerian elements: AFSPC